Simultaneous Nadir Overpasses (SNOs) Predictions

Prediction of SNOs between NPP and TERRA Satellite Orbit:

Table of predicted SNOs for the next 14.0 days since TLE Epoch: 3/19/2016
Index Date (NPP) Time (NPP) Lat,Lon (NPP) SZA (NPP ) Date (TERRA) Time (TERRA) Lat,Lon (TERRA) SZA (TERRA ) Distance(km) Time Diff (sec)
1 03/20/2016 18:23:15 -68.51, 82.99 111.81 03/20/2016 18:23:50 -68.52, 83.01 111.81 1.16 35
2 03/20/2016 19:13:59 68.39,-109.55 68.07 03/20/2016 19:13:17 68.40,-109.49 68.07 2.53 42
3 03/23/2016 09:49:34 69.05, 30.72 67.71 03/23/2016 09:50:44 68.92, 31.76 67.55 43.88 70
4 03/23/2016 10:40:07 -68.47,-161.18 112.91 03/23/2016 10:40:20 -68.49,-161.14 112.89 2.77 13
5 03/23/2016 11:30:50 68.31, 6.34 66.92 03/23/2016 11:29:48 68.31, 6.29 66.92 2.05 62
6 03/26/2016 02:06:17 68.54, 147.19 66.12 03/26/2016 02:07:20 68.53, 147.16 66.11 1.16 63
7 03/26/2016 02:56:59 -68.44, -45.36 114.00 03/26/2016 02:56:50 -68.44, -45.32 113.99 1.89 9
8 03/26/2016 03:47:35 67.90, 122.63 65.44 03/26/2016 03:46:24 67.92, 121.71 65.49 38.40 71
9 03/28/2016 18:23:08 68.51, -97.00 65.05 03/28/2016 18:23:48 68.52, -96.97 65.05 1.34 40
10 03/28/2016 19:13:49 -68.35, 70.53 115.14 03/28/2016 19:13:19 -68.37, 70.48 115.11 3.08 30
11 03/31/2016 09:49:30 -69.33,-149.64 115.15 03/31/2016 09:50:39 -69.22,-147.85 115.29 71.69 69
12 03/31/2016 10:40:00 68.49, 18.81 63.98 03/31/2016 10:40:17 68.48, 18.87 63.97 2.25 17
13 03/31/2016 11:30:41 -68.32,-173.66
